Zurück zum Katalog

NIMBUS 2 DEB

AktivLEO
NORAD 28205·DEBRIS·🇺🇸 United States

Gestartet May 15, 1966 von Vandenberg Space Force Base

Loading…

Nächste Überflüge (nächste 24 Stunden)

TLE

AktuellSource: Space-Track

Epoche: Sep 14, 2026, 10:14 UTC

1 28205U 66040T   26257.42693231  .00001690  00000-0  24851-2 0  9993
2 28205 100.3336 139.3277 0054351  60.4139 116.5319 13.55379303104761

Verfolge NIMBUS 2 DEB in Echtzeit mit AllMySat

Download on the App Store